UFO 11 (USA 174) 1 28117U 03057A 21065.50101104 -.00000112 00000-0 00000-0 0 9995 2 28117 6.3679 37.7403 0005745 333.2683 48.9239 1.00271068 63116 ATLAS 3B CENTAUR R/B 1 28118U 03057B 21065.75681785 .00088897 -26180-5 79529-3 0 9994 2 28118 28.1012 243.6336 2182514 309.3028 33.3044 11.19995451428782